Home   Weather   Melilla   Past weeks

Flag for Spain Past Weather in Melilla, Melilla, Spain — Yesterday and Last 2 Weeks

Now
77 °F

Partly cloudy.


Feels Like: 78 °F
Forecast: 76 / 80 °F
Wind: 5 mph from East

Location: Melilla Airport

Current Time: Sep 1, 2016 at 5:48:11 AM

Latest Report: Sep 1, 2016 at 5:30 AM


Visibility: N/A

Pressure: 30.07 "Hg

Humidity: 89%

Dew Point: 73 °F

Location of MelillaLocation

Past Weather in Melilla — Graph

°F

Melilla Temperature Yesterday

Maximum temperature yesterday: 84 °F (at 3:00 PM)
Minimum temperature yesterday: 73 °F (at 7:30 AM)
Average temperature yesterday: 79 °F

High & Low Weather Summary for the Past Weeks

 TemperatureHumidityPressure
High97 °F (Aug 19, 2:30 PM)94% (Aug 27, 5:30 AM)30.18 "Hg (Aug 27, 5:30 AM)
Low72 °F (Aug 28, 4:00 AM)16% (Aug 29, 4:00 PM)29.83 "Hg (Aug 18, 6:30 PM)
Average81 °F68%30.02 "Hg
* Reported Aug 17 4:00 AM — Sep 1 4:30 AM, Melilla, Weather by CustomWeather, © 2016

Note: Actual official high and low records may vary slightly from our data, if they occured in-between our weather recording intervals... More about our weather records

Advertising

Melilla Weather History for the Previous 24 Hours

Scroll right to see more
 ConditionsComfort  
Time TempWeatherWind HumidityBarometerVisibility
4:30 AM
Thu, Sep 1
77 °FPartly cloudy.5 mph89%30.07 "HgN/A
4:00 AM77 °FPassing clouds.6 mph89%30.07 "HgN/A
3:30 AM77 °FPassing clouds.6 mph89%30.09 "HgN/A
3:00 AM77 °FPassing clouds.5 mph89%30.09 "HgN/A
2:30 AM77 °FPassing clouds.5 mph89%30.09 "HgN/A
2:00 AM77 °FPassing clouds.3 mph89%30.09 "HgN/A
1:30 AM77 °FPassing clouds.5 mph89%30.09 "HgN/A
1:00 AM77 °FWarm.5 mph89%30.09 "HgN/A
12:30 AM77 °FPassing clouds.3 mph89%30.09 "HgN/A
12:00 AM79 °FWarm.3 mph84%30.09 "HgN/A
11:30 PM
Wed, Aug 31
79 °FWarm.3 mph84%30.09 "HgN/A
11:00 PM79 °FPassing clouds.3 mph84%30.09 "HgN/A
10:30 PM79 °FPassing clouds.8 mph84%30.09 "HgN/A
10:00 PM79 °FPassing clouds.3 mph84%30.09 "HgN/A
9:30 PM79 °FPassing clouds.3 mph84%30.07 "HgN/A
9:00 PM79 °FPassing clouds.5 mph84%30.07 "HgN/A
8:30 PM79 °FPartly sunny.3 mph84%30.04 "HgN/A
8:00 PM79 °FPartly sunny.3 mph84%30.04 "HgN/A
7:30 PM81 °FScattered clouds.3 mph74%30.04 "HgN/A
7:00 PM81 °FScattered clouds.5 mph74%30.04 "HgN/A
6:30 PM81 °FScattered clouds.6 mph74%30.04 "HgN/A
6:00 PM81 °FScattered clouds.8 mph74%30.04 "HgN/A
5:30 PM82 °FPassing clouds.9 mph70%30.04 "HgN/A
5:00 PM81 °FPassing clouds.12 mph74%30.04 "HgN/A
4:30 PM84 °FPassing clouds.10 mph70%30.04 "HgN/A
4:00 PM82 °FScattered clouds.10 mph70%30.07 "HgN/A
3:30 PM82 °FScattered clouds.10 mph70%30.07 "HgN/A
3:00 PM84 °FScattered clouds.9 mph62%30.07 "HgN/A
2:30 PM82 °FScattered clouds.9 mph70%30.07 "HgN/A
2:00 PM82 °FScattered clouds.10 mph66%30.07 "HgN/A
1:30 PM82 °FScattered clouds.6 mph70%30.07 "HgN/A
1:00 PM82 °FScattered clouds.7 mph70%30.09 "HgN/A
12:30 PM82 °FScattered clouds.6 mph70%30.09 "HgN/A
12:00 PM81 °FScattered clouds.8 mph74%30.09 "HgN/A
11:30 AM81 °FScattered clouds.7 mph74%30.09 "HgN/A
11:00 AM81 °FPartly sunny.No wind74%30.07 "HgN/A
10:30 AM81 °FScattered clouds.2 mph70%30.07 "Hg6 mi
10:00 AM81 °FScattered clouds.1 mph74%30.07 "Hg6 mi
9:30 AM79 °FScattered clouds.2 mph79%30.07 "Hg6 mi
9:00 AM77 °FScattered clouds.2 mph83%30.07 "Hg6 mi
8:30 AM75 °FPassing clouds.No wind89%30.04 "Hg6 mi
8:00 AM75 °FPassing clouds.2 mph89%30.04 "Hg6 mi
7:30 AM73 °FPassing clouds.2 mph94%30.04 "HgN/A
7:00 AM75 °FPassing clouds.1 mph89%30.04 "HgN/A
6:30 AM75 °FPartly cloudy.2 mph89%30.04 "HgN/A
6:00 AM75 °FPassing clouds.1 mph89%30.04 "HgN/A
5:30 AM75 °FPassing clouds.2 mph89%30.04 "Hg4 mi
5:00 AM77 °FPassing clouds.1 mph89%30.04 "Hg6 mi
Weather by CustomWeather, © 2016

See weather overviewHow to use our weather pages